www.pogodaiklimat.ru

Погода и климат >> Архив погоды >> Россия >> Волгоградская область >> Волгоград город


ПОГОДА в Волгограде город

  • Прогноз погоды в Волгограде город
  • Монитор погоды в Волгограде город

АРХИВ ПОГОДЫ в Волгограде город

Время (UTC), дата Ветер
(напр.,м/с)
 
Видим.   Явления Облачность Т
(С)
Тd
(С)
f
(%)
Тe
(С)
Тes
(С)
Комфортность P
(гПа)
Po
(гПа)
Тmin
(С)
Tmax
(С)
R
(мм)
R24
(мм)
S
(см)
00 15.09 ЮЗ 3 10 км 10/0
[Ac und]
+19.5 +1.0 29 +20 +20 1015.6 1002.1
03 15.09 С 4 10 км 9/4 1500 м
[Sc diur, vesp Ac cast Cc]
+16.4 +5.9 50 +16 +16 1016.4 1002.7 +16.4
06 15.09 С 2 10 км 10/3 1000 м
[Sc Ac und]
+18.3 +9.5 56 +19 +20 1017.2 1003.6 +15.9
09 15.09 С 3 10 км 8/3 1500 м
[Sc Ac As]
+19.1 +6.5 44 +20 +23 1017.6 1004.1
12 15.09 С 2 10 км в посл. час ливневой дождь 8/5 1500 м
[Cb cap Ac As]
+17.8 +5.9 46 +18 +20 1017.3 1003.7
15 15.09 СЗ 2 10 км {ливн. осадки} 4/0
[Ci]
+18.4 -2.3 24 +19 +19 1017.2 1003.6 +19.9 0.1
18 15.09 СЗ 2 10 км ясно +15.0 -1.0 33 +15 +15 1018.7 1004.9
21 15.09 СЗ 2 10 км 3/0
[Ci fib]
+13.1 -0.6 39 +13 +13 1018.9 1005.0
00 16.09 штиль 0 10 км ясно +11.5 +0.9 48 +11 +11 1018.2 1004.2
03 16.09 З 3 10 км 4/0
[Ci]
+12.6 -0.5 40 +12 +12 1018.1 1004.1 +11.1
06 16.09 ЮЗ 2 10 км ясно +18.7 -1.5 25 +19 +24 1016.4 1002.8
09 16.09 ЮЗ 3-10
{11}
10 км ясно +21.6 -2.0 20 +21 +29 комфорт 1013.7 1000.3
12 16.09 ЮЗ 2
{13}
10 км ясно +22.8 -3.0 18 +21 +27 комфорт 1011.1 997.8
15 16.09 Ю 2
{12}
10 км 3/0
[Ci fib]
+21.5 -2.9 19 +21 +21 комфорт 1009.6 996.2 +23.1
18 16.09 ЮЗ 3 10 км ясно +19.3 -2.2 23 +20 +20 1009.4 995.9
21 16.09 ЮЗ 4 10 км ясно +16.5 -1.1 30 +16 +16 1008.9 995.3
00 17.09 ЮЗ 3 10 км 4/0
[Ci fib]
+15.3 +1.2 38 +15 +15 1007.8 994.2
03 17.09 ЮЗ 3 10 км ясно +14.4 +3.5 48 +14 +14 1007.5 993.8 +14.4
06 17.09 Ю 2 10 км ясно +19.4 +5.8 41 +21 +25 комфорт 1007.0 993.6 +14.2
09 17.09 ЮЗ 3-10
{10}
10 км 3/0
[Ac trans]
+25.2 +4.8 27 +25 +31 комфорт 1005.2 992.0
12 17.09 ЮЗ 4-10
{13}
10 км 8/0
[Ac trans Ci fib]
+25.9 +5.8 28 +25 +28 комфорт 1003.8 990.7
15 17.09 СЗ 2
{13}
10 км 10/0
[Ac trans Ci fib]
+22.5 +4.7 31 +23 +23 комфорт 1004.4 991.2 +26.5
18 17.09 СЗ 3 10 км 10/0
[Ac trans Ci fib]
+18.4 +7.5 49 +19 +19 1006.2 992.7
21 17.09 ЮЗ 3 н/о н/о +14.6 +10.9 78 +14 +14 1006.9 993.3
00 18.09 В 1 10 км {ливн. осадки} ясно +12.9 +10.4 85 +13 +13 1007.0 993.3
03 18.09 ЮЗ 2 10 км 6/0
[Ci fib]
+11.8 +9.6 86 +11 +11 1007.6 993.8 +11.8
06 18.09 Ю 1 10 км 9/8 1000 м
[Sc diur, vesp Ci fib]
+16.2 +8.7 61 +17 +18 1007.8 994.2
09 18.09 ЮЗ 4-12
{12}
10 км 6/1 1000 м
[Cu hum Cc]
+21.0 +6.2 38 +22 +27 комфорт 1006.4 993.0
12 18.09 ЮЗ 3-10
{14}
10 км 9/3 1500 м
[Sc diur, vesp Ac cast Cc]
+22.6 +6.2 35 +23 +25 комфорт 1004.0 990.7
15 18.09 ЮЗ 2
{13}
4000 м гроза, ливневой дождь 10/10 300 м
[Cb cap]
+17.4 +14.7 84 +18 +18 1002.4 989.0 +22.9 5
18 18.09 Ю 3-11
{16}
10 км {гроза, ливн. осадки} 9/9 300 м
[Sc diur, vesp]
+16.9 +12.6 76 +17 +17 1002.7 989.2
21 18.09 СВ 2
{11}
10 км в посл. час ливневой дождь 10/10 300 м
[Cb cap]
+12.2 +7.8 74 +11 +11 1006.3 992.6
00 19.09 ЮЗ 3 10 км {ливн. осадки} ясно +10.1 +4.2 67 +8 +8 1008.6 994.7
03 19.09 ЮЗ 4-11
{11}
10 км ясно +9.4 +1.6 58 +7 +7 1010.6 996.6 +8.4 2
06 19.09 СЗ 3
{11}
10 км ясно +11.8 +2.9 54 +10 +14 1013.4 999.5
09 19.09 ЮЗ 2
{10}
10 км 4/4 1000 м
[Cu med, cong]
+14.2 +3.0 47 +14 +20 1015.0 1001.2
12 19.09 СЗ 3
{11}
10 км 8/8 1500 м
[Cu med, cong]
+15.0 +2.5 43 +14 +15 1016.0 1002.2
15 19.09 СЗ 1 10 км 4/4 1000 м
[Sc diur, vesp]
+13.6 +2.3 46 +14 +14 1017.1 1003.2 +16.2
18 19.09 СЗ 1 10 км ясно +9.6 +3.4 65 +9 +9 1018.4 1004.4
21 19.09 СЗ 2 10 км ясно +8.7 +2.5 65 +7 +7 1018.3 1004.2
00 20.09 СЗ 1 10 км ясно +8.1 +2.9 70 +8 +8 1018.2 1004.1
03 20.09 С 1 10 км 4/0
[Ac trans Ci]
+9.4 +3.3 66 +9 +9 1018.1 1004.0 +7.5
06 20.09 Ю 1 10 км 10/0
[Ac As Ci fib]
+12.2 +4.4 59 +12 +15 1018.3 1004.4
09 20.09 Ю 1 10 км 10/4 1000 м
[Cu med, cong Ac As]
+15.3 +5.7 53 +16 +18 1016.6 1002.9
12 20.09 Ю 1 10 км 10/4 1000 м
[Cb cap Ac As]
+14.1 +3.7 50 +15 +16 1015.5 1001.7
15 20.09 штиль 0 10 км 10/6 1000 м
[Cb cap Ac As]
+13.7 +3.7 51 +14 +14 1014.7 1000.9 +15.8
18 20.09 Ю 1 4000 м слаб. ливневой дождь 10/10 600 м
[Cb cap]
+9.7 +6.5 80 +9 +9 1015.6 1001.6
21 20.09 ЮЗ 1 4000 м слаб. ливневой дождь 10/10 600 м
[Cb cap]
+9.0 +5.9 81 +8 +8 1014.3 1000.3
00 21.09 СЗ 1 4000 м слаб. ливневой дождь 10/10 300 м
[Cb cap]
+8.6 +6.6 87 +8 +8 1013.7 999.7
03 21.09 СЗ 2 10 км слаб. дождь 10/10 300 м
[Sc diur, vesp]
+8.2 +6.1 87 +6 +6 1013.1 999.0 +8.2 6
06 21.09 СЗ 2 10 км {ливн. осадки, дождь} 10/0
[Ac trans Ci fib]
+10.1 +6.3 77 +9 +11 1013.0 999.0 +8.2
09 21.09 СЗ 2 10 км 10/5 1000 м
[Sc diur, vesp Ac trans Ci fib]
+14.3 +4.6 52 +14 +16 1011.9 998.2
12 21.09 СЗ 3
{12}
10 км слаб. ливневой дождь 10/10 600 м
[Cb cap]
+9.8 +3.2 63 +8 +8 1012.8 998.8
15 21.09 СЗ 1 10 км {ливн. осадки} 10/0
[Ac trans Ci fib]
+11.0 +4.6 65 +11 +11 1012.6 998.7 +14.7 0.8
18 21.09 СЗ 1 10 км {ливн. осадки} ясно +8.4 +3.6 72 +8 +8 1013.6 999.5
21 21.09 Ю 1 10 км ясно +7.1 +3.4 77 +6 +6 1013.4 999.3

 

Местоположение метеостанции Волгоград город (Волгоградская область, Россия): широта 48.67 долгота 44.45 высота над уровнем моря 116 м.

В архиве по умолчанию представлена погода в Волгограде город за последнюю неделю. Архивные данные за месяц целиком и за предыдущие месяцы, начиная с января 2011 года, Вы можете получить, выбрав интересующий диапазон дат из раскрывающегося списка и нажав кнопку "Ввод!".


*Определитесь, кто Вы:
робот инопланетянин человек

Внимание! Время в таблицах - всемирное. Для получения местного времени необходимо прибавить поправку, которая равна 3 ч.

Смотрите также архив погоды в соседних городах и на ближайших метеорологических станциях:

Погода в Волгограде (Волгоградская область, Россия) (14 км)
Погода в Калаче-на-Дону (Волгоградская область, Россия) (71 км)
Погода в Иловле (Волгоградская область, Россия) (77 км)
Погода в Малых Дербетах (Калмыкия, Россия) (84 км)
Погода в Нижнем Чире (Волгоградская область, Россия) (105 км)
Погода в Ольховке (Волгоградская область, Россия) (134 км)
Погода в Фролове (Волгоградская область, Россия) (138 км)
Погода в Черный Яр (Астраханская область, Россия) (140 км)
Погода в Кетченерах (Калмыкия, Россия) (150 км)
Погода в Котельниково (Волгоградская область, Россия) (151 км)

Пояснения к столбцам:

Ветер - указаны скорость ветра в м/с - средняя за 10 мин, порывы в срок и между сроками (в фигурных скобках) и направление, откуда дует ветер: С - северный, СВ - северо-восточный, В - восточный, ЮВ - юго-восточный, Ю - южный, ЮЗ - юго-западный, З - западный, СЗ - северо-западный.
Видимость - горизонтальная дальность видимости в метрах или километрах. При видимости от 1 до 10 км при отсутствии осадков обычно наблюдается дымка, при ухудшении видимости до 1 км и менее - туман. В сухую погоду видимость может ухудшаться дымом, пылью или мглою.
Явления - указаны атмосферные явления, наблюдавшиеся в срок или в последний час перед сроком; фигурными скобками обозначены явления, наблюдавшиеся между сроками (за 1-3 часа до срока); квадратными скобками обозначены град или гололедные отложения с указанием их диаметра в мм.
Облачность - указаны через наклонную черту общая и нижняя облачность в баллах и высота нижней границы облаков в метрах; квадратными скобками обозначены формы облаков: Ci - перистые, Cs - перисто-слоистые, Cc - перисто-кучевые, Ac - высококучевые, As - высокослоистые, Sc - слоисто-кучевые, Ns - слоисто-дождевые, Cu - кучевые, Cb - кучево-дождевые. Подробнее классификацию облаков см. в Атласе облаков (PDF).
T - Температура воздуха - температура, измеренная на высоте 2 м над землей.
Td - Температура точки росы - температура, при понижении до которой содержащийся в воздухе водяной пар достигнет насыщения.
f - Относительная влажность воздуха - влажноcть воздуха, измеренная на высоте 2 м над землей.
Te - Эффективная температура - температура, которую ощущает одетый по сезону человек в тени. Характеристика душности погоды. При расчете учитывается влияние влажности воздуха и скорости ветра на теплоощущения человека.
Tes - Эффективная температура на солнце - температура, которую ощущает человек, с поправкой на солнечный нагрев. Характеристика знойности погоды. Зависит от высоты солнца над горизонтом, облачности и скорости ветра. Ночью, в пасмурную погоду, а также при ветре 12 м/с и более поправка равна нулю.
P - Атмосферное давление - приведенное к уровню моря атмосферное давление.
Po - Атмосферное давление - измеренное на уровне метеостанции атмосферное давление.
Tmin - Минимальная температура - минимум температуры воздуха на высоте 2 м над землей.
Tmax - Максимальная температура - максимум температуры воздуха на высоте 2 м над землей.
R - Количество осадков - Количество выпавших осадков за период времени, мм. При наведении курсора мыши на число - период времени, за который выпало указанное количество осадков.
R24 - Количество осадков - Количество выпавших осадков за 24 часа, мм.
S - Снежный покров - Высота снежного покрова, см. При наведении курсора мыши на число - состояние снежного покрова и степень покрытия местности в баллах.